Content
SEND FEEDBACK

Thailand Flag

PHUKET, THAILAND


Home > Asia > Thailand
Elevation: 33 feet     Latitude: 08 07N     Longitude: 098 19E

WEATHER
 
SELECT A DAY
Number of Records: 260,269;   Date Range: 7/1/96 - 3/22/16
 
SHARE

PRINT THIS DATA

[ ← Previous Day ]
WEATHER ALMANAC - MAY 1, 2013
[ Next Day → ]
[ °C ]   °F
Weather ElementAverageHighLow
Temperature83.8 °F89.6 °F (1:30 pm)77 °F (2:00 am)
Dewpoint75.6 °F80 °F (1:00 am)73.4 °F (5:30 pm)
Humidity76.6 %100 % (1:00 am)57 % (1:00 pm)
Barometer29.79 in29.83 in (12:30 am)29.72 in (7:00 pm)
Wind Speed6.2 mph12.7 mph (1:00 pm)
Weather ElementAverage
Visibility6 mi
Wind DirectionS (185.1 °)

Weather ElementTotal
Precipitation---
Cooling Degree Days18.3 (Base 65)
Growing Degree Days33.3 (Base 50)
Averaged from 49 records on May 1, 2013
WEATHER CONDITIONS BREAKOUT
WIND DIRECTION BREAKOUT
WEATHER BY HOUR - MAY 1, 2013
[ °C ]   °F
Local TimeTemperatureDewpointHumidityBarometerVisibilityWind DirectionWind SpeedGust SpeedPrecipitationEventsConditions
12:30 AM78.8 °F75.2 °F89 %29.83 in5.6 miCalmMostly Cloudy
1:00 AM80.0 °F80.0 °F100 %29.78 in6.0 miCalmMist
1:00 AM78.8 °F75.2 °F89 %29.80 in5.6 miCalmMostly Cloudy
1:30 AM78.8 °F75.2 °F89 %29.80 in5.6 miCalmMostly Cloudy
2:00 AM77.0 °F75.2 °F94 %29.80 in5.6 miCalmMostly Cloudy
2:30 AM77.0 °F75.2 °F94 %29.77 in5.6 miCalmMostly Cloudy
3:00 AM77.0 °F75.2 °F94 %29.77 in5.6 miCalmMostly Cloudy
3:30 AM77.0 °F75.2 °F94 %29.77 in5.6 miCalmMostly Cloudy
4:00 AM77.0 °F75.2 °F94 %29.77 in5.6 miCalmMostly Cloudy
4:30 AM77.0 °F75.2 °F94 %29.77 in5.6 miCalmMostly Cloudy
5:30 AM77.0 °F75.2 °F94 %29.77 in5.6 miCalmMostly Cloudy
6:30 AM77.0 °F75.2 °F94 %29.80 in6.2 miCalmMostly Cloudy
7:00 AM78.8 °F75.2 °F89 %29.80 in6.2 miCalmMostly Cloudy
7:00 AM79.0 °F77.0 °F93 %29.75 in6.0 miCalmMist
7:30 AM78.8 °F77.0 °F94 %29.80 in6.2 miEast (90°)2.3 mphMostly Cloudy
8:00 AM84.2 °F77.0 °F79 %29.80 in6.2 miCalmMostly Cloudy
8:30 AM86.0 °F77.0 °F74 %29.83 in6.2 miCalmMostly Cloudy
9:00 AM86.0 °F75.2 °F70 %29.83 in6.2 miVariable2.3 mphMostly Cloudy
9:30 AM86.0 °F77.0 °F74 %29.83 in6.2 miNW (310°)4.6 mphScattered Clouds
10:00 AM87.8 °F75.2 °F66 %29.83 in6.2 miWest (280°)6.9 mphScattered Clouds
10:30 AM87.8 °F75.2 °F66 %29.83 in6.2 miWest (280°)10.4 mphMostly Cloudy
11:00 AM87.8 °F77.0 °F70 %29.83 in6.2 miWest (260°)10.4 mphMostly Cloudy
11:30 AM87.8 °F77.0 °F70 %29.83 in6.2 miWest (270°)9.2 mphMostly Cloudy
12:00 PM87.8 °F77.0 °F70 %29.83 in6.2 miWest (270°)10.4 mphMostly Cloudy
12:30 PM87.8 °F75.2 °F66 %29.83 in6.2 miWest (260°)10.4 mphMostly Cloudy
1:00 PM89.0 °F76.0 °F57 %29.77 in6.0 miWest (280°)10.4 mphScattered Clouds
1:00 PM87.8 °F75.2 °F66 %29.80 in6.2 miWest (280°)12.7 mphMostly Cloudy
1:30 PM89.6 °F77.0 °F66 %29.80 in6.2 miWest (270°)11.5 mphMostly Cloudy
2:00 PM89.6 °F77.0 °F66 %29.77 in6.2 miWest (270°)12.7 mphMostly Cloudy
2:30 PM87.8 °F75.2 °F66 %29.77 in6.2 miWest (270°)9.2 mphMostly Cloudy
3:00 PM87.8 °F75.2 °F66 %29.77 in6.2 miWest (260°)11.5 mphMostly Cloudy
3:30 PM87.8 °F75.2 °F66 %29.74 in6.2 miWest (260°)11.5 mphMostly Cloudy
4:00 PM87.8 °F75.2 °F66 %29.74 in6.2 miWest (270°)12.7 mphMostly Cloudy
4:30 PM87.8 °F75.2 °F66 %29.74 in6.2 miWest (270°)11.5 mphMostly Cloudy
5:00 PM87.8 °F75.2 °F66 %29.74 in6.2 miWest (270°)10.4 mphMostly Cloudy
5:30 PM86.0 °F73.4 °F66 %29.74 in6.2 miWest (270°)10.4 mphScattered Clouds
6:00 PM86.0 °F75.2 °F70 %29.74 in6.2 miWNW (290°)9.2 mphMostly Cloudy
6:30 PM86.0 °F73.4 °F66 %29.74 in6.2 miWNW (290°)9.2 mphMostly Cloudy
7:00 PM87.0 °F76.0 °F63 %29.72 in6.0 miWest (280°)9.2 mphScattered Clouds
7:00 PM84.2 °F75.2 °F74 %29.77 in6.2 miWNW (290°)8.1 mphMostly Cloudy
7:30 PM84.2 °F73.4 °F70 %29.77 in6.2 miWest (280°)10.4 mphScattered Clouds
8:00 PM84.2 °F73.4 °F70 %29.77 in6.2 miWNW (290°)9.2 mphScattered Clouds
8:30 PM84.2 °F75.2 °F74 %29.80 in6.2 miWest (280°)9.2 mphScattered Clouds
9:00 PM84.2 °F75.2 °F74 %29.80 in5.6 miWest (280°)9.2 mphScattered Clouds
9:30 PM84.2 °F75.2 °F74 %29.80 in5.6 miWNW (290°)10.4 mphScattered Clouds
10:00 PM84.2 °F75.2 °F74 %29.83 in5.6 miWest (280°)10.4 mphScattered Clouds
10:30 PM84.2 °F75.2 °F74 %29.83 in5.6 miWest (280°)9.2 mphScattered Clouds
11:00 PM84.2 °F75.2 °F74 %29.83 in5.6 miWNW (290°)4.6 mphMostly Cloudy
11:30 PM82.4 °F75.2 °F79 %29.83 in5.6 miWNW (290°)4.6 mphMostly Cloudy
Hourly data recorded from VTSP, located miles away from Phuket, Thailand




STORIES FROM OUR PARTNERS